This is the latest recevied weather packets stored in our database for station/object W4FXD. If no packets are shown the sender has not sent any weather packets the latest 10 day(s).
| Time | Temp. | Humidity | Pressure | Rain* | Wind** | Luminosity | Snow |
|---|---|---|---|---|---|---|---|
| 1778070231 | 16.67° C | 99% | 1012 hPa | 3.05 mm | - | 15 W/m² | - |
| 1778069929 | 17.22° C | 98% | 1011.8 hPa | 3.05 mm | - | 14 W/m² | - |
| 1778069626 | 17.22° C | 98% | 1012.1 hPa | 3.05 mm | - | 15 W/m² | - |
| 1778069323 | 17.22° C | 97% | 1012.4 hPa | 3.05 mm | - | 9 W/m² | - |
| 1778069020 | 17.22° C | 97% | 1012.6 hPa | 3.05 mm | - | 13 W/m² | - |
| 1778068717 | 17.22° C | 96% | 1012.3 hPa | 4.32 mm | - | 6 W/m² | - |
| 1778068416 | 17.78° C | 95% | 1012.1 hPa | 3.05 mm | - | 5 W/m² | - |
| 1778068114 | 17.78° C | 94% | 1012 hPa | 1.27 mm | - | 5 W/m² | - |
| 1778067811 | 17.78° C | 93% | 1012 hPa | 1.78 mm | - | 8 W/m² | - |
| 1778067509 | 17.78° C | 93% | 1011.9 hPa | 1.78 mm | - | 10 W/m² | - |
| 1778067207 | 17.78° C | 91% | 1011.7 hPa | 1.78 mm | - | 10 W/m² | - |
| 1778066903 | 18.33° C | 90% | 1011.6 hPa | 0 mm | - | 7 W/m² | - |
| 1778066600 | 18.33° C | 90% | 1011.2 hPa | 0 mm | - | 9 W/m² | - |
| 1778066298 | 18.33° C | 89% | 1011.1 hPa | 1.27 mm | - | 6 W/m² | - |
| 1778065996 | 18.33° C | 88% | 1011.2 hPa | 1.27 mm | - | 4 W/m² | - |
| 1778065693 | 18.33° C | 88% | 1011 hPa | 0 mm | - | 4 W/m² | - |
| 1778065390 | 18.89° C | 87% | 1011.3 hPa | 1.78 mm | - | 3 W/m² | - |
| 1778065086 | 18.89° C | 85% | 1011.3 hPa | 1.78 mm | - | 2 W/m² | - |
| 1778064783 | 19.44° C | 82% | 1011.2 hPa | 1.78 mm | - | 0 W/m² | - |
| 1778064481 | 20° C | 80% | 1011.2 hPa | 0 mm | - | 0 W/m² | - |
| 1778064178 | 20° C | 78% | 1011 hPa | 0 mm | - | 0 W/m² | - |
| 1778063876 | 20° C | 77% | 1011 hPa | 0 mm | - | 0 W/m² | - |
| 1778063573 | 20° C | 77% | 1010.8 hPa | 0 mm | - | 0 W/m² | - |
| 1778063270 | 20.56° C | 76% | 1010.7 hPa | 0 mm | - | 0 W/m² | - |
| 1778062969 | 20.56° C | 76% | 1010.7 hPa | 0 mm | - | 0 W/m² | - |
* Rain latest hour (hover to see other rain measurements)
** Current wind speed in m/s (hover to see current wind gust speed)